Weather History for Tepic, Nay., Mexico

Change the Weather History Date:

Saturday, October 27, 2012

  Actual Average Record
Temperature  
Mean Temperature 75 °F -  
Max Temperature 88 °F 81 °F - ()
Min Temperature 62 °F 52 °F - ()
Cooling Degree Days 10    
Growing Degree Days 25 (Base 50)    
Moisture  
Dew Point 61 °F    
Average Humidity 69    
Maximum Humidity 100    
Minimum Humidity 24    
Precipitation  
Precipitation 0.00 in - - ()
Sea Level Pressure  
Sea Level Pressure 29.90 in    
Wind  
Wind Speed 2 mph ()    
Max Wind Speed 9 mph    
Max Gust Speed -    
Visibility 8.6 miles    
Events Fog    
T = Trace of Precipitation, MM = Missing Value Source: Averaged Metar Reports

Daily Weather History Graph

Daily Weather History Graph

Search for Another Location

Airport:

Trip Planner

Search our weather history database for the weather conditions in past years. The results will help you decide how hot, cold, wet, or windy it might be!

Date:

Astronomy

Oct. 27, 2012 Rise Set
Actual Time 7:00 AM MDT 6:25 PM MDT
Civil Twilight 6:37 AM MDT 6:48 PM MDT
Nautical Twilight 6:11 AM MDT 7:14 PM MDT
Astronomical Twilight 5:45 AM MDT 7:40 PM MDT
Moon 5:06 PM MDT (10/27) 5:08 AM MDT (10/27)
Length of Visible Light 12h 10m
Length of Day
11h 25m
Waxing Gibbous, 96% of the Moon is Illuminated
Oct 27
Waxing Gibbous
Oct 29
Full
Nov 6
Last Quarter
Nov 13
New
Nov 20
First Quarter

Hourly Weather History & Observations

Time (MDT) Temp. Heat Index Dew Point Humidity Pressure Visibility Wind Dir Wind Speed Gust Speed Precip Events Conditions
2:33 AM 67 °F - 66 °F 95% 29.76 in 0 mi SE 4.5 mph - - Fog Heavy Fog
5:34 AM 64 °F - 61 °F 87% 29.75 in 6 mi SE 4.5 mph - -  
5:59 AM 59.0 °F - 59.0 °F 100% 29.86 in 0.0 mi Calm Calm - N/A Fog Fog
6:35 AM 57.2 °F - 57.2 °F 100% 30.01 in 3.0 mi Calm Calm - N/A   Scattered Clouds
6:51 AM 57.2 °F - 57.2 °F 100% 30.01 in 6.0 mi Calm Calm - N/A   Scattered Clouds
7:41 AM 59.0 °F - 55.4 °F 88% 30.03 in 8.0 mi Calm Calm - N/A   Mostly Cloudy
8:32 AM 65 °F - 58 °F 70% 29.81 in 12 mi Calm Calm - -   Partly Cloudy
8:46 AM 62.6 °F - 57.2 °F 82% 29.91 in 8.0 mi Calm Calm - N/A   Mostly Cloudy
9:53 AM 68.0 °F - 60.8 °F 78% 30.06 in 10.0 mi Calm Calm - N/A   Mostly Cloudy
10:45 AM 73.4 °F - 60.8 °F 65% 30.06 in 10.0 mi Calm Calm - N/A   Mostly Cloudy
11:33 AM 83 °F - 52 °F 24% 29.79 in 12 mi Calm Calm - -   Scattered Clouds
11:49 AM 82.4 °F 82.5 °F 59.0 °F 45% 29.86 in 10.0 mi Calm Calm - N/A   Scattered Clouds
12:49 PM 86.0 °F 86.1 °F 60.8 °F 43% 30.00 in 12.0 mi West 3.5 mph - N/A   Partly Cloudy
1:50 PM 86.0 °F 86.1 °F 60.8 °F 43% 29.97 in 12.0 mi North 4.6 mph - N/A   Partly Cloudy
2:33 PM 86 °F - 57 °F 27% 29.74 in 12 mi WNW 8.9 mph - -  
2:43 PM 84.2 °F 85.6 °F 64.4 °F 51% 29.77 in 12.0 mi North 9.2 mph - N/A   Scattered Clouds
3:49 PM 82.4 °F 83.9 °F 64.4 °F 54% 29.97 in 12.0 mi North 9.2 mph - N/A   Scattered Clouds
4:50 PM 78.8 °F - 69.8 °F 74% 29.98 in 12.0 mi North 6.9 mph - N/A   Scattered Clouds
5:34 PM 80 °F - 68 °F 60% 29.80 in 12 mi West 6.7 mph - -   Scattered Clouds
8:34 PM 73 °F - 69 °F 83% 29.87 in 6 mi WNW 4.5 mph - -   Mist
11:34 PM 71 °F - 65 °F 78% 29.90 in 6 mi ESE 2.2 mph - -   Mist